• In Germany
  • List of Countries
  • For 7 days
  • Water Temperature
  • Satellite Maps
  • Weather Map
  • Weather Widgets
  • user-avatar
    Login

    Hourly Weather Prutz

    Today, 16 November, Friday

    Time Temperature Precipitation Wind Pressure Humidity
    00:00 +3°C° 0 mm 1 mps 636 mmHg 45%
    01:00 +3°C° 0 mm 1 mps 637 mmHg 41%
    02:00 +3°C° 0 mm 1 mps 637 mmHg 41%
    03:00 +3°C° 0 mm 1 mps 637 mmHg 41%
    04:00 +2°C° 0 mm 1 mps 637 mmHg 41%
    05:00 +2°C° 0 mm 1 mps 637 mmHg 41%
    06:00 +2°C° 0 mm 1 mps 637 mmHg 42%
    07:00 +2°C° 0 mm 1 mps 636 mmHg 42%
    08:00 +4°C° 0 mm 1 mps 637 mmHg 42%
    09:00 +5°C° 0 mm 1 mps 638 mmHg 41%
    10:00 +7°C° 0 mm 1 mps 639 mmHg 40%
    11:00 +8°C° 0 mm 1 mps 639 mmHg 40%
    12:00 +8°C° 0 mm 1 mps 638 mmHg 41%
    13:00 +8°C° 0 mm 2 mps 638 mmHg 41%
    14:00 +7°C° 0 mm 1 mps 638 mmHg 49%
    15:00 +6°C° 0 mm 1 mps 637 mmHg 57%
    16:00 +4°C° 0 mm 1 mps 636 mmHg 64%
    17:00 +3°C° 0 mm 1 mps 636 mmHg 69%
    18:00 +2°C° 0 mm 1 mps 636 mmHg 74%
    19:00 0°C° 0 mm 1 mps 636 mmHg 79%
    20:00 0°C° 0 mm 1 mps 636 mmHg 79%
    21:00 -2°C° 0 mm 2 mps 636 mmHg 80%
    22:00 -2°C° 0 mm 2 mps 636 mmHg 80%
    23:00 -2°C° 0 mm 2 mps 636 mmHg 80%

    Tomorrow, 17 November, Saturday

    Time Temperature Precipitation Wind Pressure Humidity
    00:00 -2°C° 0 mm 2 mps 636 mmHg 81%
    01:00 -2°C° 0 mm 2 mps 636 mmHg 82%
    02:00 -2°C° 0 mm 2 mps 636 mmHg 82%
    03:00 -2°C° 0 mm 2 mps 635 mmHg 83%
    04:00 -3°C° 0 mm 2 mps 635 mmHg 83%
    05:00 -3°C° 0 mm 2 mps 635 mmHg 83%
    06:00 -3°C° 0 mm 2 mps 635 mmHg 82%
    07:00 -3°C° 0 mm 2 mps 635 mmHg 82%
    08:00 -2°C° 0 mm 2 mps 636 mmHg 75%
    09:00 -1°C° 0 mm 2 mps 636 mmHg 67%
    10:00 +2°C° 0 mm 2 mps 636 mmHg 60%
    11:00 +3°C° 0 mm 2 mps 636 mmHg 55%
    12:00 +3°C° 0 mm 2 mps 636 mmHg 49%
    13:00 +4°C° 0 mm 2 mps 636 mmHg 44%
    14:00 +4°C° 0 mm 1 mps 636 mmHg 48%
    15:00 +3°C° 0 mm 1 mps 635 mmHg 53%
    16:00 +2°C° 0 mm 1 mps 635 mmHg 57%
    17:00 +1°C° 0 mm 1 mps 634 mmHg 61%
    18:00 0°C° 0 mm 1 mps 634 mmHg 65%
    19:00 -2°C° 0 mm 1 mps 634 mmHg 69%
    20:00 -2°C° 0 mm 1 mps 634 mmHg 69%
    21:00 -2°C° 0 mm 1 mps 634 mmHg 68%
    22:00 -4°C° 0 mm 2 mps 634 mmHg 68%
    23:00 -4°C° 0 mm 2 mps 634 mmHg 68%

    Day after tomorrow, 18 November, Sunday

    Time Temperature Precipitation Wind Pressure Humidity
    00:00 -4°C° 0 mm 2 mps 634 mmHg 68%
    01:00 -4°C° 0 mm 2 mps 634 mmHg 68%
    02:00 -4°C° 0 mm 2 mps 634 mmHg 68%
    03:00 -5°C° 0 mm 2 mps 634 mmHg 68%
    04:00 -5°C° 0 mm 2 mps 634 mmHg 69%
    05:00 -5°C° 0 mm 2 mps 634 mmHg 68%
    06:00 -5°C° 0 mm 2 mps 634 mmHg 67%
    07:00 -5°C° 0 mm 2 mps 633 mmHg 67%
    08:00 -2°C° 0 mm 1 mps 634 mmHg 60%
    09:00 0°C° 0 mm 1 mps 634 mmHg 54%
    10:00 +2°C° 0 mm 1 mps 635 mmHg 47%
    11:00 +3°C° 0 mm 1 mps 635 mmHg 45%
    12:00 +3°C° 0 mm 1 mps 634 mmHg 42%
    13:00 +4°C° 0 mm 1 mps 634 mmHg 40%
    14:00 +3°C° 0 mm 1 mps 634 mmHg 45%
    15:00 +2°C° 0 mm 1 mps 633 mmHg 51%
    16:00 +1°C° 0 mm 1 mps 632 mmHg 56%
    17:00 0°C° 0 mm 1 mps 632 mmHg 61%
    18:00 -1°C° 0 mm 1 mps 631 mmHg 66%
    19:00 -2°C° 0 mm 1 mps 631 mmHg 71%
    20:00 -3°C° 0 mm 1 mps 631 mmHg 73%
    21:00 -3°C° 0 mm 1 mps 631 mmHg 74%
    22:00 -3°C° 0 mm 1 mps 631 mmHg 75%
    23:00 -3°C° 0 mm 1 mps 630 mmHg 76%

    19 November, Monday

    Time Temperature Precipitation Wind Pressure Humidity
    00:00 -3°C° 0 mm 1 mps 630 mmHg 76%
    01:00 -4°C° 0 mm 1 mps 630 mmHg 77%
    02:00 -4°C° 0 mm 1 mps 629 mmHg 78%
    03:00 -4°C° 0 mm 1 mps 629 mmHg 79%
    04:00 -4°C° 0 mm 1 mps 629 mmHg 80%
    05:00 -4°C° 0 mm 1 mps 628 mmHg 82%
    06:00 -6°C° 0 mm 1 mps 628 mmHg 83%
    07:00 -6°C° 0 mm 1 mps 628 mmHg 84%
    08:00 -4°C° 0 mm 1 mps 628 mmHg 80%
    09:00 -3°C° 0 mm 1 mps 628 mmHg 75%
    10:00 -2°C° 0 mm 1 mps 629 mmHg 71%
    11:00 -1°C° 0 mm 1 mps 628 mmHg 67%
    12:00 -3°C° 0 mm 2 mps 628 mmHg 64%
    13:00 -2°C° 0 mm 2 mps 628 mmHg 61%
    14:00 -3°C° 0 mm 2 mps 627 mmHg 65%
    15:00 -4°C° 0 mm 2 mps 627 mmHg 69%
    16:00 -4°C° 0 mm 2 mps 626 mmHg 73%
    17:00 -5°C° 0.1 mm 2 mps 626 mmHg 78%
    18:00 -5°C° 0.1 mm 2 mps 626 mmHg 82%
    19:00 -6°C° 0.1 mm 2 mps 626 mmHg 86%
    20:00 -4°C° 0.1 mm 1 mps 626 mmHg 86%
    21:00 -6°C° 0.1 mm 1 mps 625 mmHg 87%
    22:00 -6°C° 0.1 mm 1 mps 625 mmHg 87%
    23:00 -6°C° 0.1 mm 1 mps 625 mmHg 87%

    20 November, Tuesday

    Time Temperature Precipitation Wind Pressure Humidity
    00:00 -6°C° 0.1 mm 1 mps 625 mmHg 87%
    01:00 -6°C° 0.1 mm 1 mps 625 mmHg 86%
    02:00 -6°C° 0.1 mm 1 mps 624 mmHg 86%
    03:00 -7°C° 0.1 mm 1 mps 624 mmHg 86%
    04:00 -7°C° 0.1 mm 1 mps 624 mmHg 86%
    05:00 -7°C° 0.1 mm 1 mps 623 mmHg 86%
    06:00 -7°C° 0.1 mm 1 mps 623 mmHg 86%
    07:00 -7°C° 0.1 mm 1 mps 623 mmHg 85%
    08:00 -7°C° 0.1 mm 1 mps 623 mmHg 81%
    09:00 -6°C° 0.1 mm 1 mps 623 mmHg 77%
    10:00 -4°C° 0.1 mm 1 mps 623 mmHg 72%
    11:00 -6°C° 0.1 mm 2 mps 623 mmHg 70%
    12:00 -5°C° 0.1 mm 2 mps 623 mmHg 68%
    13:00 -5°C° 0.1 mm 2 mps 622 mmHg 66%
    14:00 -6°C° 0.1 mm 2 mps 622 mmHg 70%
    15:00 -6°C° 0.1 mm 2 mps 622 mmHg 74%
    16:00 -7°C° 0.1 mm 2 mps 622 mmHg 78%
    17:00 -7°C° 0.2 mm 2 mps 622 mmHg 81%
    18:00 -8°C° 0.2 mm 2 mps 622 mmHg 84%
    19:00 -8°C° 0.2 mm 2 mps 622 mmHg 87%
    20:00 -8°C° 0.2 mm 2 mps 622 mmHg 87%
    21:00 -8°C° 0.2 mm 2 mps 622 mmHg 87%
    22:00 -8°C° 0.2 mm 2 mps 622 mmHg 87%
    23:00 -9°C° 0.2 mm 2 mps 622 mmHg 88%

    21 November, Wednesday

    Time Temperature Precipitation Wind Pressure Humidity
    00:00 -9°C° 0.2 mm 2 mps 622 mmHg 88%
    01:00 -9°C° 0.2 mm 2 mps 622 mmHg 88%
    02:00 -9°C° 0.2 mm 2 mps 622 mmHg 88%
    03:00 -9°C° 0.2 mm 2 mps 622 mmHg 88%
    04:00 -9°C° 0.2 mm 2 mps 622 mmHg 88%
    05:00 -9°C° 0.2 mm 2 mps 622 mmHg 88%
    06:00 -9°C° 0.2 mm 2 mps 622 mmHg 88%
    07:00 -9°C° 0.2 mm 2 mps 622 mmHg 88%
    08:00 -9°C° 0.2 mm 2 mps 623 mmHg 86%
    09:00 -8°C° 0.2 mm 2 mps 623 mmHg 84%
    10:00 -8°C° 0.2 mm 2 mps 623 mmHg 81%
    11:00 -8°C° 0.2 mm 2 mps 624 mmHg 78%
    12:00 -7°C° 0.2 mm 2 mps 624 mmHg 76%
    13:00 -7°C° 0.2 mm 2 mps 624 mmHg 73%
    14:00 -7°C° 0.2 mm 2 mps 624 mmHg 76%
    15:00 -8°C° 0.2 mm 2 mps 624 mmHg 78%
    16:00 -8°C° 0.2 mm 2 mps 624 mmHg 80%
    17:00 -8°C° 0.1 mm 1 mps 624 mmHg 83%
    18:00 -8°C° 0.1 mm 1 mps 625 mmHg 86%
    19:00 -9°C° 0.1 mm 1 mps 625 mmHg 89%
    20:00 -10°C° 0 mm 1 mps 625 mmHg 89%
    21:00 -10°C° 0 mm 1 mps 625 mmHg 89%
    22:00 -11°C° 0 mm 1 mps 626 mmHg 89%
    23:00 -11°C° 0 mm 1 mps 626 mmHg 88%
    Show more